Theta_e
319 324 321 316 314 313 315 313 310 313 314 314 315 317 317 316 316 313 313 316 311 311 318 316 312 310 308 308 307 306 308 310 309 308 307 307 306 306 307 308 308 307 307 306 306 307 307 307 307 308 308 308 308 308 308 308 307 307 306 305 306 304 302 300 300 299 297 296 294 293 293 293 292 291 290 290 290 289 289 289 288 288 287 287 286 286
320 319 316 314 312 311 314 314 312 313 315 316 316 316 318 315 314 311 311 315 311 309 315 312 310 311 310 309 308 307 309 310 309 307 306 306 306 307 307 308 308 307 306 306 307 306 307 308 307 307 308 308 308 308 308 308 307 307 306 306 306 304 303 302 301 300 298 298 297 295 294 294 292 291 291 290 290 290 289 289 288 288 287 287 287 286
324 316 315 315 312 312 317 319 316 315 316 316 315 315 316 313 314 315 314 314 309 307 315 313 310 314 313 310 308 307 308 308 308 308 307 306 307 307 308 308 308 308 307 308 308 305 304 306 306 306 306 307 308 308 308 308 307 307 306 306 305 304 303 303 302 300 300 299 298 296 295 294 292 291 291 291 290 290 289 289 288 288 287 287 287 286
318 314 314 314 313 314 319 322 319 318 315 312 313 314 314 312 311 314 315 312 307 306 311 312 312 315 315 313 310 308 307 306 307 309 308 307 307 306 306 308 308 309 309 308 309 307 303 303 304 304 304 305 306 307 307 307 307 306 306 306 305 304 304 303 302 301 300 298 296 295 294 292 291 290 290 289 289 289 288 288 288 288 287 287 287 286
315 313 312 314 317 316 317 320 317 315 313 312 314 312 311 313 310 310 310 308 310 310 308 311 318 322 318 315 313 310 310 309 309 310 309 309 308 306 306 307 308 308 308 308 308 308 305 302 302 303 303 303 304 305 306 305 305 306 306 306 305 304 303 303 302 301 299 297 295 294 292 290 290 289 288 287 287 287 287 287 288 288 288 287 287 286
315 312 311 315 322 320 318 318 313 311 313 315 318 313 309 312 310 310 308 309 316 317 309 309 316 323 322 317 315 314 314 312 312 313 313 312 310 310 309 308 308 309 308 308 306 306 304 301 300 301 302 302 303 303 302 303 304 305 305 305 305 304 303 303 303 301 299 297 296 294 292 290 289 288 287 288 288 288 287 288 288 288 288 287 287 286
313 314 314 315 320 320 314 312 310 309 312 314 315 313 310 311 310 310 308 310 317 316 309 309 312 314 316 316 315 316 316 315 316 316 315 314 312 312 311 308 309 309 310 310 308 307 304 300 299 300 301 302 302 300 300 301 303 305 305 305 305 304 304 303 303 301 299 298 296 295 293 292 291 289 289 290 290 289 288 288 287 287 287 287 287 286
313 318 319 317 317 316 310 309 309 308 310 314 313 310 310 311 310 309 307 309 313 313 312 313 313 312 316 318 313 312 313 315 319 319 317 316 313 314 314 311 310 309 311 311 309 307 305 300 299 300 301 301 300 299 299 299 301 303 304 305 305 304 304 304 303 302 300 298 297 296 294 293 292 291 292 292 290 289 289 288 287 287 287 287 287 286
312 314 314 316 314 311 308 309 310 307 310 317 315 309 308 309 309 308 308 311 310 310 315 317 312 310 316 317 312 309 309 313 320 320 317 317 314 315 315 312 311 312 313 313 310 307 303 300 299 300 301 300 299 299 298 298 298 300 302 303 303 304 303 303 303 302 300 299 298 297 294 293 292 292 292 291 290 289 289 287 287 287 286 286 286 286
311 310 307 312 312 309 310 311 310 309 311 315 311 308 309 308 309 308 309 313 312 311 316 317 309 307 312 312 312 311 308 314 324 322 317 317 317 317 315 312 314 314 314 314 311 306 300 299 300 300 299 299 298 298 297 297 297 297 299 300 301 302 303 302 302 301 300 299 298 296 294 293 292 292 291 290 289 289 288 287 287 286 286 286 286 286
310 309 306 310 311 309 311 311 310 309 309 312 312 311 314 312 312 313 311 310 311 312 315 314 309 307 309 312 315 313 310 312 317 318 316 318 319 319 318 316 317 314 311 309 308 304 299 299 300 299 299 299 298 298 298 297 297 297 297 297 298 300 300 301 301 300 300 299 298 296 295 294 293 292 291 290 289 288 287 286 286 286 285 285 285 285
311 311 309 311 311 308 310 311 311 309 306 309 314 312 310 312 314 320 319 311 307 308 312 311 310 307 309 315 316 314 315 314 311 312 314 315 316 319 321 319 315 313 309 307 308 306 302 300 299 298 298 298 298 298 298 297 297 297 297 297 297 297 297 298 299 299 299 298 297 297 295 294 293 292 291 290 289 289 288 287 286 285 285 284 284 284
314 311 308 310 309 305 308 310 312 314 311 310 314 312 310 314 314 316 317 312 309 308 308 309 308 307 308 313 314 312 315 316 313 313 314 311 311 316 321 316 311 309 307 307 309 308 307 304 299 297 298 298 298 298 297 297 297 297 297 297 296 296 296 296 296 297 297 297 297 296 296 295 294 292 291 290 290 290 289 288 288 287 286 285 284 284
314 312 310 310 308 305 308 308 308 313 312 309 312 313 315 314 309 311 313 308 307 307 305 304 306 309 309 310 314 312 309 309 309 310 312 312 311 312 314 311 308 308 308 309 311 309 310 305 298 296 298 298 298 298 297 297 297 297 297 297 296 296 296 296 296 296 296 297 297 296 296 295 294 293 291 291 290 290 290 289 288 288 287 286 286 285
309 309 310 309 306 307 309 307 305 308 309 309 310 310 313 313 307 309 313 309 308 308 305 303 306 313 311 307 311 309 307 308 308 309 311 312 313 311 310 310 309 310 309 311 312 312 309 302 296 297 298 297 297 297 297 297 297 297 296 296 296 296 296 296 296 295 295 296 296 296 296 295 295 294 292 292 291 290 290 289 289 288 288 287 286 286
306 307 310 308 305 306 309 308 306 306 309 309 307 308 312 312 308 310 311 308 306 309 310 309 310 314 309 305 310 309 310 312 309 308 309 309 311 310 309 311 312 311 309 309 310 309 304 297 296 297 297 297 297 296 296 296 296 296 296 296 296 296 296 296 296 296 295 295 295 295 295 295 295 294 293 292 291 291 290 290 289 289 288 287 286 285
305 307 311 308 306 307 307 308 307 306 307 306 305 307 307 305 308 310 309 307 306 307 310 308 307 309 306 306 313 312 310 309 306 304 304 304 307 307 306 309 310 307 304 302 302 302 298 295 295 296 296 296 296 295 296 295 295 295 295 295 295 295 295 296 295 295 295 295 295 294 295 295 294 294 293 293 292 291 291 290 289 289 288 287 286 285
303 307 311 307 306 308 304 304 307 305 305 307 309 308 305 305 311 310 306 310 311 307 306 306 305 306 305 307 313 313 308 306 303 301 301 301 302 301 301 301 302 300 297 297 297 296 295 294 294 294 294 295 295 295 295 295 295 295 294 294 294 294 294 295 295 295 295 295 295 295 294 294 294 294 293 293 292 291 290 290 289 288 288 287 286 285
302 306 312 307 305 308 304 304 308 308 304 304 306 306 304 305 310 309 305 309 308 304 307 309 305 305 308 312 312 308 305 302 300 300 299 299 298 297 296 296 296 296 295 295 295 294 294 293 293 294 294 294 294 294 294 294 294 294 294 294 293 294 294 294 294 294 294 294 295 295 294 294 294 293 293 293 292 291 290 289 289 288 288 287 286 286
303 303 307 307 304 304 305 305 307 310 309 307 306 307 306 304 308 308 305 307 307 306 309 309 305 305 312 317 310 302 301 299 298 298 297 296 296 295 295 295 295 294 294 294 293 294 293 293 293 293 293 293 293 293 293 294 294 294 294 293 293 293 293 293 293 293 293 294 294 295 295 294 294 293 293 293 292 291 290 289 289 288 288 287 286 286
304 303 305 309 306 303 304 305 305 305 308 309 309 309 307 306 309 307 303 306 307 308 310 309 306 304 306 309 304 298 298 297 297 297 295 295 295 294 294 294 294 294 294 293 293 293 293 292 293 293 293 293 293 293 293 293 293 293 293 293 293 292 292 292 292 293 293 293 293 294 294 294 294 294 293 292 292 291 290 290 289 288 288 287 286 286
303 304 305 307 307 304 303 304 303 303 305 306 307 309 308 307 308 305 303 306 306 306 310 308 305 304 302 301 298 297 297 296 296 296 295 295 294 294 294 293 293 293 293 293 292 292 292 292 292 292 292 292 292 292 292 292 292 292 292 293 292 292 292 292 292 292 292 293 293 293 293 294 294 294 293 292 292 291 291 290 289 288 287 286 286 285
301 302 304 307 305 303 302 302 302 302 303 304 304 306 307 306 305 304 305 307 305 304 307 305 303 304 300 297 296 296 296 295 295 295 295 294 294 294 294 293 293 293 293 292 292 291 292 291 292 292 291 292 292 291 291 292 292 292 292 292 292 291 291 291 291 291 292 292 292 293 293 293 293 293 293 292 292 291 291 290 289 288 287 286 286 285
300 302 303 306 305 302 301 301 301 301 302 304 304 303 305 305 304 304 304 304 304 303 304 303 304 304 299 296 295 296 294 294 294 294 294 294 293 293 294 293 293 293 292 292 291 291 291 291 291 291 291 291 291 291 291 291 291 291 291 291 291 291 291 291 291 291 291 292 292 292 292 292 292 293 293 292 292 291 291 290 289 288 287 286 285 285
299 304 305 305 305 301 300 300 300 301 302 302 303 304 305 304 303 303 302 301 303 305 304 303 304 303 299 295 295 295 294 293 293 292 293 292 292 293 294 294 293 293 292 291 290 290 290 290 290 290 290 290 290 290 290 290 291 290 290 290 290 290 290 290 290 290 291 291 291 291 291 291 291 292 292 292 292 292 291 290 289 288 287 286 285 284
300 304 303 303 304 301 300 301 300 301 301 301 301 303 303 301 301 303 302 301 303 304 303 303 303 302 299 295 294 294 293 293 292 292 292 292 291 292 293 293 293 293 292 291 290 290 290 290 290 290 290 290 290 290 290 290 290 290 289 289 289 289 289 289 290 290 290 291 291 291 291 291 291 291 292 292 292 292 291 290 289 288 287 286 285 284
302 304 302 304 307 304 302 302 301 301 301 301 302 302 301 301 300 301 301 302 302 301 301 301 301 301 298 295 294 293 292 293 293 292 291 291 291 291 292 293 293 293 292 291 290 289 289 289 289 289 290 290 289 289 289 289 289 289 289 289 289 289 289 289 289 290 290 290 290 290 290 291 291 291 291 291 291 291 291 291 290 288 287 286 285 284
302 305 303 304 306 305 303 302 301 301 301 300 302 302 301 300 300 299 300 300 300 300 301 300 299 299 297 294 293 293 292 292 292 292 291 291 291 291 291 291 293 293 291 290 289 289 289 289 289 289 289 289 289 289 289 289 289 289 289 289 289 289 289 289 289 289 289 290 290 290 290 290 291 291 291 291 291 291 291 291 291 290 288 286 285 284
300 304 304 302 305 305 302 301 301 300 300 300 300 300 299 299 299 299 298 298 298 299 299 298 296 297 296 294 293 293 292 292 292 292 291 291 291 291 290 290 291 292 290 289 288 288 288 288 288 289 289 289 289 289 288 289 289 289 289 289 289 289 289 289 289 289 289 289 289 290 290 290 291 291 291 291 291 291 290 290 290 290 288 286 285 284
298 305 304 300 303 303 300 301 301 300 301 301 299 298 297 297 297 297 297 297 297 298 297 295 294 295 295 293 293 292 292 292 292 292 291 291 290 289 289 290 290 290 288 288 288 288 288 288 288 288 288 288 288 288 288 288 288 288 288 288 288 288 288 289 289 289 289 289 289 289 290 290 290 291 291 291 291 291 290 290 289 289 288 286 285 284
297 304 304 300 302 302 300 301 301 301 302 300 297 296 296 295 295 295 296 296 295 296 295 293 293 293 293 293 293 292 293 292 292 292 291 289 289 288 289 289 289 288 288 288 288 288 287 288 288 287 287 287 288 288 288 288 288 288 288 288 288 288 288 288 288 288 288 289 289 289 290 290 290 290 290 290 290 290 290 290 289 288 287 286 285 284
300 303 303 303 303 301 299 300 300 300 300 299 296 294 294 294 293 293 295 296 294 294 294 293 292 292 292 293 293 292 292 291 291 290 289 289 288 288 288 288 288 287 287 287 287 287 287 287 287 287 287 287 287 287 287 287 288 288 288 288 288 288 288 288 288 288 288 288 289 289 289 289 290 290 290 290 290 290 290 290 289 287 287 286 285 284
300 301 302 303 303 302 300 299 299 299 300 300 297 293 292 293 292 292 294 294 294 293 292 292 292 291 291 291 291 290 290 290 290 289 289 288 288 287 287 287 287 287 287 287 287 287 287 287 287 287 287 287 287 287 287 287 287 287 287 287 287 287 287 287 287 287 287 288 288 289 289 289 289 290 290 290 290 290 290 289 288 287 287 286 285 284
299 300 301 301 302 304 301 299 299 299 298 299 295 292 291 292 291 291 292 293 294 293 291 291 291 290 290 290 289 289 288 288 289 288 288 288 287 287 287 287 287 287 287 287 287 286 286 286 286 287 287 287 287 287 287 287 287 287 287 287 287 287 287 287 287 287 287 288 288 288 288 288 289 289 289 289 290 290 290 289 288 288 287 286 285 283
301 300 300 301 302 305 303 300 301 300 297 296 294 292 291 291 291 291 291 293 293 291 289 290 289 289 289 288 288 288 288 288 288 288 288 288 287 287 287 287 287 287 287 287 286 286 286 286 286 287 287 287 287 287 287 287 287 287 287 287 287 287 287 287 287 287 287 288 288 288 288 288 289 289 289 289 289 290 290 289 289 288 287 286 285 283
302 301 300 300 301 303 302 301 301 299 297 294 292 291 290 290 291 291 291 293 292 290 288 288 288 288 288 288 288 288 288 288 288 288 288 287 287 287 287 287 287 287 287 286 286 286 286 286 286 286 286 287 287 287 287 287 287 287 287 287 287 287 287 287 287 287 288 288 288 288 288 288 288 288 289 289 289 289 289 289 289 288 287 285 284 283
300 301 300 300 301 301 302 302 300 300 299 293 290 291 290 290 291 290 291 293 291 288 288 288 288 288 288 288 288 288 288 288 287 287 287 287 287 287 287 287 287 287 286 286 286 286 286 286 286 286 286 286 286 286 286 286 287 287 286 287 287 287 287 287 287 287 287 287 287 288 288 288 288 288 288 289 289 289 289 289 289 289 288 285 283 282
297 299 300 300 300 300 301 301 300 301 299 293 290 291 290 290 291 290 291 293 290 288 288 288 288 288 288 288 288 288 288 287 286 286 287 287 287 287 287 287 287 286 286 286 286 286 286 286 286 286 286 286 286 286 286 286 286 286 286 286 286 286 286 287 287 287 287 287 287 287 288 287 287 288 288 289 289 289 289 289 289 289 288 286 284 283
296 297 298 298 299 300 300 300 301 301 298 292 290 290 290 290 291 290 290 291 289 288 288 288 288 288 287 287 287 287 287 286 286 286 286 286 286 286 286 286 286 286 286 286 286 286 286 286 286 286 286 286 286 286 286 286 286 286 286 286 286 286 286 286 286 287 287 287 287 287 287 287 287 288 288 289 289 289 289 289 289 289 288 286 284 283
298 297 298 299 300 300 300 300 301 299 295 291 290 290 289 290 290 290 289 289 288 288 288 288 287 287 287 287 287 287 286 286 286 286 286 286 286 286 286 286 286 286 286 286 287 286 286 286 286 286 286 286 286 286 286 286 286 286 286 286 286 286 286 286 286 287 287 287 287 287 287 287 287 288 288 289 289 289 289 289 289 289 288 287 285 283
301 298 298 300 300 299 299 299 300 298 294 290 290 290 289 289 290 289 288 288 288 288 288 287 287 287 287 287 286 286 286 286 286 286 286 286 286 286 286 286 286 287 286 286 287 286 286 286 286 286 286 286 286 286 286 286 286 286 285 285 285 285 285 286 286 286 287 287 287 287 287 287 288 288 288 289 289 289 289 289 289 288 288 286 284 282
299 297 298 298 298 298 297 297 297 298 294 290 289 289 289 289 288 288 288 288 287 287 287 286 286 286 286 286 286 286 285 285 286 286 286 286 286 286 286 286 286 286 286 286 286 286 286 286 286 286 286 286 286 286 286 286 286 285 285 285 285 285 285 286 286 286 287 287 287 287 287 287 288 288 288 288 289 289 289 289 289 288 288 286 283 281
295 296 297 297 296 296 296 296 295 295 293 290 289 288 288 288 288 288 288 287 287 286 286 286 286 286 286 286 285 285 285 285 285 286 286 286 286 286 286 286 286 286 286 286 286 286 286 286 286 286 286 286 286 286 286 286 285 285 284 285 285 285 286 286 286 286 287 287 287 288 288 288 288 287 288 288 289 289 289 289 289 288 287 285 282 280
293 293 294 294 293 293 293 293 294 293 292 290 288 287 287 288 288 287 286 286 286 286 285 285 286 285 286 285 285 285 285 285 285 286 286 286 286 286 286 286 286 286 286 286 285 285 285 285 285 286 286 286 286 286 286 286 285 284 284 285 285 286 286 286 286 286 287 287 287 288 288 288 288 287 288 288 289 289 289 289 289 287 285 283 281 279
293 292 292 292 292 291 290 291 291 291 290 289 288 287 287 287 287 286 286 285 285 285 285 285 285 285 285 285 285 285 285 285 285 285 285 286 286 286 286 286 286 286 285 285 285 285 285 285 285 285 286 286 286 286 286 286 285 285 285 285 285 285 286 286 286 286 287 287 288 288 288 288 287 287 288 288 289 289 289 288 287 285 283 281 279 278
292 291 291 292 291 290 290 290 290 289 289 288 287 287 287 286 286 285 285 285 285 285 285 285 285 285 285 285 285 285 285 285 285 285 285 285 285 286 286 285 285 285 285 285 285 285 285 285 285 285 285 286 286 286 286 286 286 285 285 285 285 285 286 286 286 286 287 287 288 288 288 287 287 288 288 289 289 289 287 286 285 283 281 279 278 277
291 291 291 290 289 288 289 289 288 288 288 287 286 286 286 285 285 285 285 285 285 284 285 285 284 284 284 284 284 284 285 285 285 285 285 285 285 285 285 285 285 285 285 285 285 285 285 285 285 285 285 285 286 286 286 286 286 285 285 285 285 286 286 286 286 287 287 287 287 288 287 287 287 288 288 288 289 288 285 283 282 281 279 278 277 277
291 291 289 288 287 287 287 287 287 287 286 286 286 285 285 285 285 285 284 284 284 284 284 284 284 284 284 284 284 284 285 285 285 285 285 285 285 285 285 285 285 285 285 285 285 285 285 285 285 285 285 285 286 286 286 286 285 285 285 285 286 286 286 286 286 287 287 287 287 288 287 287 288 288 288 288 288 286 283 281 280 279 279 278 277 276
291 289 288 287 286 286 286 286 286 286 285 285 285 285 285 285 284 284 284 284 284 284 284 284 284 284 284 284 285 284 285 285 285 285 285 285 285 284 284 285 285 285 285 285 285 285 285 285 285 285 285 285 285 285 286 286 286 286 285 286 286 286 286 286 286 286 287 287 287 287 287 287 288 288 288 288 287 285 282 280 279 278 278 278 277 277
289 287 287 286 285 285 285 285 285 285 284 285 285 285 284 284 284 284 284 284 284 284 284 284 284 284 285 285 285 285 284 285 285 285 285 284 284 284 284 285 285 285 285 284 284 284 284 285 285 285 285 285 285 285 286 286 286 286 286 286 286 286 286 286 286 286 287 287 287 287 287 287 287 287 288 288 286 283 281 280 279 278 277 277 277 277
288 287 286 286 285 285 285 285 285 284 284 284 284 284 284 284 284 284 284 284 284 284 284 284 284 284 284 285 285 285 285 284 285 285 284 284 284 284 284 284 284 284 284 284 284 284 284 284 284 284 284 285 285 285 285 285 286 286 286 286 286 286 286 286 286 286 286 287 287 287 287 287 287 287 287 288 286 282 280 279 278 278 277 277 277 276
Wind_Speed
4 6 5 3 4 5 6 4 3 3 4 2 2 2 5 5 6 8 6 5 4 5 6 5 6 10 12 13 12 12 8 7 7 8 8 7 7 6 7 8 8 8 6 7 13 17 17 18 17 15 11 9 10 12 15 18 21 24 25 26 29 30 30 30 30 31 31 31 30 30 31 34 35 34 34 35 35 35 35 34 33 33 32 32 31 31
6 7 4 4 6 7 6 4 2 1 1 1 2 3 6 4 6 8 5 5 6 6 6 4 8 12 10 9 10 9 7 8 6 6 7 6 6 6 7 8 7 5 5 8 13 18 22 22 22 20 17 14 13 12 13 15 16 19 21 24 27 27 28 30 31 32 32 33 33 32 33 35 34 34 34 36 36 37 37 35 35 34 33 32 32 33
6 6 5 7 5 4 4 3 3 1 1 2 2 2 5 4 5 8 4 5 7 3 5 7 8 10 9 7 8 8 6 4 5 4 3 4 7 6 6 6 7 7 7 9 10 13 19 21 20 19 18 16 15 14 15 15 16 17 20 23 25 26 27 29 31 32 33 34 34 33 31 30 30 32 33 35 35 35 37 37 36 35 34 34 34 34
4 3 6 5 3 4 5 6 7 4 2 2 2 2 5 5 4 5 4 8 11 3 4 7 6 7 7 6 6 7 4 3 5 4 3 3 5 3 3 3 6 8 8 9 8 8 13 17 19 19 20 20 17 17 16 17 18 20 21 23 25 26 27 28 29 30 32 32 31 30 30 28 26 27 29 30 33 34 35 36 36 36 36 36 36 36
2 4 4 4 6 5 3 5 7 6 6 4 2 1 6 6 3 4 5 9 10 3 1 5 6 4 4 5 5 6 6 5 5 5 5 5 4 3 2 3 4 5 5 6 7 7 8 11 15 18 20 20 19 18 18 19 21 22 24 25 26 26 26 27 27 28 29 29 28 28 26 25 23 24 25 26 30 34 34 36 38 39 38 38 37 37
1 4 3 4 6 6 5 4 4 3 5 6 3 3 5 7 5 6 7 8 6 4 3 5 5 5 4 4 6 5 6 6 5 6 6 6 6 5 4 5 4 2 2 3 4 6 7 10 14 18 21 20 19 20 20 20 20 20 22 23 25 25 24 25 25 26 27 28 28 27 26 25 24 24 26 30 33 35 36 38 39 39 39 39 39 38
2 4 3 4 4 6 7 4 2 2 5 5 3 4 4 5 6 7 6 4 3 4 4 4 4 4 7 5 6 5 6 7 6 6 6 6 6 5 4 5 4 3 3 4 5 6 8 11 13 16 20 20 20 22 24 24 23 21 20 19 19 21 22 22 23 23 24 26 28 30 32 32 30 27 31 35 36 34 35 36 36 37 38 39 39 39
2 7 7 6 5 7 7 5 2 2 4 4 4 2 3 7 8 6 3 1 1 3 5 4 3 2 5 6 6 4 6 7 6 7 7 6 6 5 5 5 5 4 4 4 6 7 7 8 10 13 18 20 22 25 28 28 27 25 22 18 15 16 17 19 21 22 23 25 28 31 34 35 34 33 36 35 33 32 32 33 34 36 38 39 39 40
2 5 6 5 6 6 4 5 4 2 1 6 6 3 5 6 5 2 2 1 1 2 4 5 2 1 5 7 5 2 4 7 7 7 7 7 7 6 6 6 6 6 5 4 4 5 6 6 10 13 16 19 22 25 27 28 28 26 23 20 17 16 17 17 19 20 22 24 28 31 33 34 35 36 37 33 29 30 30 31 33 35 36 37 39 40
2 0 2 1 4 3 5 6 3 3 2 7 6 5 3 1 1 2 4 1 2 3 3 5 1 2 5 7 6 4 2 6 7 6 7 7 7 6 6 6 6 6 6 5 5 5 5 6 10 13 16 19 21 23 25 28 29 28 25 23 20 19 19 17 17 18 21 24 27 31 32 34 35 35 33 31 29 28 28 30 32 33 35 36 37 39
3 2 2 2 2 2 5 6 2 5 5 5 6 5 4 4 3 3 3 3 4 2 5 6 2 3 3 7 5 3 3 4 5 6 7 7 7 6 5 6 6 6 6 6 5 5 5 8 10 13 17 18 20 23 25 27 28 28 27 26 23 21 20 18 18 19 21 22 25 30 33 35 36 34 30 28 28 29 28 29 31 32 34 35 37 38
4 3 1 2 2 0 3 5 2 1 2 4 5 4 5 5 4 4 5 4 4 4 6 6 2 4 2 6 5 6 7 6 6 7 7 7 7 6 5 5 6 6 6 6 5 5 5 6 7 11 15 16 18 21 24 24 25 26 26 26 26 25 23 21 21 21 22 21 23 26 31 34 36 35 32 30 31 31 30 31 32 31 31 32 34 36
3 1 3 5 2 0 3 4 5 4 5 6 5 5 6 5 5 5 5 3 1 6 5 3 2 1 5 8 7 9 10 9 7 7 7 7 7 7 5 5 6 6 6 6 5 5 4 4 3 7 11 14 17 19 21 23 23 25 25 25 26 26 26 25 24 23 23 23 23 24 26 31 34 35 33 33 34 33 32 32 32 31 31 32 33 35
4 5 6 5 2 0 3 4 5 5 5 6 3 3 4 3 4 4 4 3 4 8 5 0 0 2 5 6 7 8 10 10 8 6 6 7 7 7 6 6 7 6 6 6 5 6 5 5 4 7 11 14 16 18 21 22 23 24 25 25 25 26 27 27 26 25 24 24 24 24 25 27 30 33 34 34 35 35 34 33 33 34 34 35 35 37
4 5 4 2 2 2 3 1 1 1 2 4 2 4 3 3 1 3 3 2 5 8 7 3 2 3 4 5 6 7 8 8 6 4 5 6 6 5 6 7 6 7 7 7 6 7 7 7 6 10 14 16 18 19 21 23 23 24 25 25 24 25 26 26 27 26 24 24 24 24 25 26 26 30 33 35 36 36 35 34 34 35 36 36 36 36
2 5 8 4 1 1 1 1 2 2 2 3 2 3 2 2 4 2 4 5 3 5 6 3 2 5 4 7 8 6 6 7 5 4 6 8 7 5 6 7 6 6 7 7 7 8 10 11 13 16 18 19 21 22 23 25 25 24 25 25 25 25 25 25 26 26 26 25 24 23 24 25 25 27 30 33 35 35 36 36 36 36 35 35 35 34
2 6 8 5 2 2 3 2 0 1 1 2 2 1 2 3 6 2 3 3 3 2 4 2 4 5 4 7 8 6 7 8 8 7 8 8 8 7 7 7 6 7 10 11 11 12 14 16 19 22 24 25 26 26 27 28 28 27 26 26 26 27 27 27 27 28 28 27 27 26 25 25 24 25 28 31 34 36 36 37 37 36 34 33 33 33
0 5 7 3 2 3 1 1 2 1 2 1 1 3 2 1 4 3 1 4 4 2 4 4 5 5 4 6 7 8 9 11 11 10 10 10 10 10 10 10 10 12 14 15 15 16 17 19 22 26 28 29 30 30 31 31 31 30 30 28 28 28 28 29 29 29 29 28 28 28 27 26 25 25 26 29 32 35 35 36 36 35 34 34 34 34
1 3 8 3 3 7 3 3 4 4 0 1 2 3 1 2 2 2 1 2 3 4 5 7 8 4 3 5 5 8 10 12 13 13 14 16 17 16 15 16 15 15 15 14 15 15 15 19 24 26 28 31 32 32 33 33 33 33 33 32 31 30 30 30 29 29 30 29 28 28 28 28 27 26 26 27 30 32 34 35 35 35 35 35 34 34
1 0 6 5 3 5 4 4 3 5 5 4 2 2 2 2 4 1 0 1 2 4 4 6 9 5 5 5 4 9 12 15 16 16 17 19 20 16 15 15 15 14 13 12 14 13 14 19 25 27 28 30 31 32 33 33 33 34 35 34 34 34 34 33 32 31 32 32 31 30 30 29 28 28 27 26 27 30 33 35 35 35 35 34 34 34
2 1 4 6 5 4 3 1 2 3 4 3 3 3 3 2 1 1 1 2 2 3 3 3 7 8 5 1 6 13 15 16 17 16 15 16 16 15 14 14 12 12 12 12 14 14 15 21 27 30 31 31 32 34 35 34 34 35 35 35 35 36 35 35 35 34 34 35 34 33 33 31 30 29 28 27 26 28 31 34 34 34 34 33 33 34
1 1 2 6 5 4 6 5 4 4 4 3 2 2 3 2 1 2 4 3 1 3 4 3 7 10 5 6 11 13 13 14 16 15 13 14 14 13 12 12 12 11 12 13 14 15 16 21 26 29 31 32 33 33 34 35 34 34 35 35 35 35 35 35 35 36 36 36 35 35 35 34 32 30 29 28 26 27 29 31 33 34 33 33 34 34
0 2 0 5 5 6 12 7 1 1 3 4 3 2 2 1 2 1 5 5 3 2 3 1 5 8 4 11 11 10 11 12 14 14 13 13 13 13 13 13 13 13 13 14 16 16 18 23 26 27 29 31 31 32 33 33 32 33 34 34 34 33 34 35 35 36 36 36 35 35 36 36 35 33 30 28 28 27 27 29 32 33 33 33 34 33
1 2 1 6 5 6 9 5 4 2 3 1 3 1 2 1 2 4 6 2 2 6 4 1 5 6 4 11 10 10 13 14 14 15 15 14 14 14 14 13 13 14 15 17 18 17 21 25 26 25 27 28 30 31 32 32 31 32 33 33 33 33 35 37 36 37 37 35 35 36 35 35 35 34 32 31 29 28 28 28 30 31 32 33 33 32
2 0 2 4 7 8 8 7 5 3 2 2 5 1 3 0 2 2 2 1 2 8 7 4 7 7 3 11 13 15 18 17 16 16 14 13 15 16 14 13 13 13 15 18 19 18 20 22 21 22 25 27 28 30 30 31 32 32 33 33 33 33 35 38 37 37 36 35 34 35 35 34 34 34 34 33 31 29 29 28 29 30 31 32 32 32
2 1 2 2 3 7 7 7 7 6 5 5 7 5 1 1 3 4 3 2 4 6 6 5 9 8 7 16 18 18 20 18 16 18 16 14 17 17 16 15 14 13 15 17 18 17 17 17 18 21 25 27 28 30 30 31 33 33 34 34 34 34 35 37 37 36 35 34 33 34 35 34 33 33 33 33 33 31 29 28 28 29 30 31 32 32
1 1 2 5 5 5 7 9 6 3 5 9 13 15 9 3 3 2 1 4 5 6 8 8 9 10 10 16 18 18 20 18 15 17 18 17 17 18 18 18 16 14 14 15 16 17 18 18 18 21 26 28 29 30 31 32 33 34 33 33 34 35 35 36 36 36 35 34 33 34 34 35 34 33 33 33 33 32 30 29 28 29 30 31 32 31
3 3 4 6 8 10 10 11 10 5 6 12 13 14 13 11 9 5 5 8 7 6 7 8 13 11 9 14 18 18 19 18 16 16 17 16 15 16 18 19 19 16 14 15 17 19 20 20 19 20 25 29 30 32 33 33 35 35 34 35 35 35 36 36 36 35 35 34 33 34 35 36 35 34 33 34 33 32 32 30 29 29 29 30 31 31
4 3 4 3 7 12 10 11 12 8 7 9 8 9 13 14 12 9 8 9 8 5 5 11 14 11 9 14 18 18 16 17 18 15 14 15 15 16 18 19 18 15 15 18 19 19 19 20 20 20 25 29 32 33 35 35 36 37 36 37 38 38 38 38 36 36 35 34 33 34 35 37 36 35 34 34 33 33 32 31 30 29 28 28 30 31
3 3 4 2 6 12 11 10 9 6 6 7 6 8 10 9 9 9 7 7 7 4 5 12 14 11 10 11 14 15 13 13 15 14 14 17 18 19 20 18 15 15 17 20 20 18 18 19 19 20 24 28 31 33 34 34 35 35 36 37 38 39 39 39 37 36 35 35 34 35 36 36 35 35 35 34 33 33 32 31 31 29 28 28 29 30
0 3 3 2 5 12 10 4 3 5 7 5 7 10 11 11 12 13 9 6 6 5 8 13 12 10 11 11 13 14 12 12 15 17 18 19 21 22 20 17 16 19 20 19 19 18 18 18 18 19 22 26 31 33 33 33 34 34 35 36 37 38 38 37 36 35 35 35 35 36 36 35 34 33 33 33 33 34 34 33 31 29 28 28 28 29
2 3 4 5 5 11 9 6 9 10 5 3 9 14 14 11 13 13 7 3 5 6 10 12 11 10 12 13 14 15 15 15 17 18 18 19 20 20 18 17 18 20 20 19 18 19 19 19 18 18 22 28 33 34 34 35 34 34 34 36 37 38 38 37 36 35 36 36 35 35 35 35 34 33 33 32 32 32 34 33 31 29 27 27 28 29
2 1 3 4 4 10 12 12 13 11 6 3 6 11 12 10 12 14 9 6 5 5 7 8 9 12 14 14 16 17 18 17 16 16 17 18 18 17 16 18 18 19 19 17 18 19 19 19 19 21 27 31 33 34 36 37 35 34 35 37 38 38 37 36 37 37 37 36 35 35 35 34 33 32 33 33 31 31 31 31 31 30 29 28 29 29
2 3 1 1 1 9 13 12 11 9 7 1 3 6 8 8 11 16 15 10 6 4 7 8 11 15 17 17 19 20 19 18 16 16 18 17 14 14 16 18 18 18 18 17 19 21 20 20 23 29 33 35 36 38 39 38 36 36 37 38 38 37 36 36 37 36 35 35 35 35 35 34 33 32 33 33 32 31 30 30 31 31 31 30 28 28
1 1 2 1 2 6 7 7 9 10 3 4 4 6 10 11 14 18 19 11 5 6 13 14 16 21 21 18 19 19 20 20 19 19 20 16 12 13 17 19 19 19 18 18 21 22 21 23 28 32 35 37 39 40 39 38 37 37 38 38 37 36 36 36 35 33 33 33 35 35 35 34 33 32 33 33 33 32 31 30 30 31 31 30 29 29
2 2 1 1 2 4 5 5 8 8 1 5 3 11 15 17 16 17 18 13 5 8 17 18 21 24 23 21 20 18 19 20 17 16 15 13 12 15 17 18 19 17 17 18 20 21 24 27 30 33 36 37 39 39 38 37 37 37 37 38 37 35 35 34 32 31 32 33 34 35 35 33 32 32 33 33 32 31 31 30 30 31 31 30 28 27
4 3 1 2 1 1 4 4 7 8 3 4 8 12 13 12 12 12 14 10 3 12 22 23 25 25 22 20 19 17 17 18 15 12 11 12 15 18 19 19 19 19 21 24 27 27 29 32 33 35 38 37 37 38 37 37 37 36 36 36 35 33 33 31 29 30 31 33 33 34 34 34 32 32 32 32 31 30 30 30 30 31 30 27 26 25
3 3 1 1 1 1 3 5 6 8 6 2 6 11 12 12 13 14 13 7 7 19 25 22 22 23 21 19 19 17 17 16 15 12 11 15 19 20 19 20 22 25 27 29 31 31 33 35 37 38 39 37 37 39 39 38 38 36 34 33 33 32 31 29 29 30 31 32 33 34 36 36 34 32 31 31 30 30 31 30 30 31 29 26 26 26
2 1 4 1 2 1 2 4 5 6 4 3 8 14 15 15 16 15 12 7 11 19 20 18 19 21 20 19 19 17 14 14 16 15 15 19 21 20 19 19 22 28 32 33 31 31 34 37 39 39 38 36 36 40 41 40 38 34 31 32 32 31 29 28 29 30 31 33 34 34 35 35 34 33 32 31 31 32 32 31 30 31 29 26 26 27
4 3 4 1 3 3 2 4 4 3 2 5 11 16 17 17 17 15 12 11 14 17 17 17 19 20 19 19 17 14 11 12 16 18 19 21 22 22 22 21 23 28 33 34 35 36 37 38 37 36 36 35 36 40 42 39 35 31 30 32 31 29 29 30 32 32 33 35 34 32 33 33 33 34 34 33 33 34 33 32 31 30 28 26 26 26
4 3 1 1 4 5 4 5 4 2 2 8 16 19 19 16 12 11 12 13 15 17 16 16 18 19 19 17 14 11 12 14 16 19 21 22 22 22 25 28 32 35 35 34 37 40 39 38 36 36 36 36 38 40 40 36 31 29 31 31 28 28 31 33 34 33 33 35 34 33 33 33 33 34 35 35 34 34 34 32 31 30 28 25 24 23
5 4 3 2 4 5 4 6 7 4 1 10 17 18 16 12 8 9 12 14 15 16 16 16 18 17 16 16 15 14 16 19 21 21 21 21 21 21 23 28 32 34 34 35 38 40 38 35 36 37 37 37 38 39 38 35 29 28 30 28 27 31 35 34 34 33 33 34 33 33 34 34 34 34 35 34 33 32 33 32 30 29 27 24 22 21
3 4 3 4 4 4 5 6 6 4 5 13 18 14 10 9 9 11 12 12 13 15 16 16 16 15 15 18 18 19 21 22 23 23 22 21 22 21 23 26 27 28 30 33 35 38 36 33 32 34 36 36 37 37 37 33 28 27 28 27 30 34 35 33 33 33 33 32 32 32 33 34 34 34 33 33 32 31 32 32 30 27 24 21 19 18
2 2 3 3 2 3 4 4 5 7 9 12 14 12 9 10 10 11 12 12 12 13 13 13 14 15 16 18 20 22 23 22 23 24 23 22 22 22 24 26 27 28 29 30 33 38 37 31 30 33 36 36 36 36 37 33 28 26 26 28 32 35 34 33 33 31 31 31 31 31 33 34 35 34 33 31 31 30 30 29 28 24 19 17 17 16
2 3 3 4 2 3 6 8 7 8 9 10 11 12 13 14 13 13 14 14 12 11 11 12 14 17 18 19 21 21 21 21 22 24 23 23 23 24 25 27 29 29 29 31 35 37 35 32 32 34 35 36 37 36 36 34 29 26 27 31 33 33 32 33 32 30 29 30 30 30 32 34 34 33 31 31 30 29 26 25 25 20 14 13 14 14
2 3 2 1 4 7 7 8 10 10 11 14 14 12 13 15 14 13 14 13 13 12 11 12 14 17 18 18 19 20 20 21 23 24 23 23 24 24 25 25 27 29 31 31 33 35 34 32 32 31 30 34 37 36 35 35 32 27 29 33 33 32 32 31 30 29 29 29 29 31 32 32 32 30 29 30 30 25 22 23 24 17 10 10 11 12
2 4 3 3 8 9 7 9 15 15 15 15 13 12 13 15 15 14 14 14 15 15 14 14 16 18 19 18 19 20 22 22 23 23 22 22 23 24 22 20 23 28 31 31 32 34 33 30 28 27 27 30 34 35 34 34 32 30 32 33 32 32 32 29 28 27 27 27 29 30 30 29 29 27 28 28 26 23 22 23 20 12 8 9 10 9
4 6 7 7 9 9 9 13 18 18 17 16 13 13 15 16 17 19 18 18 18 19 19 20 18 16 17 19 19 20 22 22 22 23 22 20 21 21 18 19 24 28 31 33 34 34 31 28 26 27 27 28 32 34 33 33 32 32 34 34 33 32 30 28 27 27 27 27 28 27 27 28 27 26 26 25 23 22 22 20 16 10 9 10 11 11
5 6 8 10 11 9 9 13 17 19 18 15 14 16 17 16 19 21 21 20 21 21 21 24 23 20 19 21 21 21 23 23 22 23 24 21 19 19 19 22 27 29 29 32 34 33 31 28 28 28 28 29 32 33 32 32 33 34 34 33 33 32 29 27 27 26 26 26 25 25 26 27 26 25 24 23 21 21 21 18 14 10 10 10 11 13
5 6 7 10 10 9 11 14 15 15 15 13 15 19 19 18 19 20 21 22 23 23 22 25 28 27 25 25 23 21 23 24 23 24 24 21 18 20 24 27 29 29 30 32 32 32 31 30 30 30 30 31 33 33 31 31 32 34 35 34 33 31 28 27 25 23 23 23 23 24 25 25 25 25 24 21 19 19 18 17 13 8 8 9 9 11
4 5 6 7 8 11 15 16 13 11 12 15 18 18 19 19 18 18 22 23 22 24 25 24 26 28 26 26 27 25 21 21 24 26 23 20 22 26 30 30 28 27 30 31 29 28 30 31 31 30 28 31 35 34 32 31 31 33 35 35 34 32 29 26 23 20 20 21 22 24 25 24 24 24 22 20 18 17 15 15 14 9 5 5 6 6
Wind_Direction
73 58 35 358 306 291 277 246 206 202 191 224 248 259 279 277 279 282 277 280 359 358 280 261 292 294 298 302 311 316 343 35 31 42 43 31 38 37 42 36 26 26 356 358 26 35 41 40 33 21 5 339 306 284 269 258 252 247 242 241 240 237 232 229 228 227 226 225 226 228 229 232 234 233 233 233 235 237 238 239 239 238 239 238 238 238
63 59 3 275 251 259 272 258 230 221 165 301 261 288 306 277 272 292 285 288 12 24 280 308 337 311 307 311 316 333 18 34 17 44 50 36 43 38 45 44 30 19 359 19 31 29 30 32 28 20 10 355 336 317 296 279 267 257 250 248 247 243 237 235 235 232 230 232 232 232 234 235 235 233 233 234 235 238 239 239 239 239 239 239 238 239
44 45 310 268 254 277 320 9 46 32 94 11 321 330 323 298 291 302 295 314 354 13 280 333 346 307 303 305 317 351 26 20 356 26 38 40 56 47 44 48 38 32 22 25 25 21 23 23 20 13 3 349 328 312 302 292 284 272 262 258 254 249 245 243 240 238 239 241 239 238 240 240 239 238 238 239 239 240 240 239 239 239 239 239 239 240
48 1 298 286 344 0 346 10 38 28 37 21 343 6 318 314 347 314 309 332 329 299 258 317 319 291 306 322 329 345 349 339 341 333 321 28 52 46 52 57 51 50 35 23 16 13 18 17 15 8 360 352 335 317 312 309 302 291 280 274 266 257 252 249 246 246 246 244 242 241 243 244 245 245 244 243 241 240 239 238 238 239 239 239 240 240
97 272 296 352 22 35 2 2 35 28 358 331 259 315 307 308 313 265 293 326 323 327 324 336 333 303 337 357 322 322 338 334 335 338 342 359 347 321 20 31 41 67 56 34 18 1 5 12 13 11 7 6 1 349 340 333 321 308 298 288 277 265 258 255 254 253 249 245 243 242 240 242 244 245 242 239 238 236 235 235 236 238 238 238 239 240
42 277 322 6 11 40 49 19 33 41 355 327 265 231 269 291 288 278 311 336 352 4 345 24 19 304 323 341 287 303 339 320 328 352 337 327 331 341 14 11 2 16 30 37 22 356 358 8 14 17 16 19 20 10 358 349 338 323 312 299 284 272 264 263 262 258 252 247 244 240 236 235 235 235 233 234 236 234 232 234 235 237 237 237 238 238
348 341 29 42 22 33 40 25 356 72 36 339 274 199 223 287 303 304 331 6 21 314 302 54 76 286 317 312 263 285 318 306 319 331 311 305 320 330 332 332 338 336 342 4 10 6 9 12 12 13 15 20 19 11 7 4 357 348 334 316 297 282 275 273 270 263 257 251 248 243 239 237 234 234 238 240 240 238 237 237 236 236 237 236 236 237
334 350 12 34 36 28 20 0 309 96 59 303 252 152 285 305 306 305 345 74 232 288 316 22 100 241 303 281 256 268 287 303 317 306 302 303 296 296 295 302 317 319 332 0 5 7 7 8 13 16 19 21 17 12 12 10 7 3 354 339 318 301 295 290 280 272 265 259 256 250 245 242 240 240 245 247 245 243 242 239 237 237 236 236 236 236
334 0 349 1 22 20 353 317 281 131 76 267 261 304 299 293 288 286 101 184 272 5 334 329 44 31 282 276 303 323 252 285 294 279 283 289 287 286 289 301 316 322 326 332 338 344 342 360 22 28 28 24 19 16 14 13 12 8 2 353 337 322 315 306 293 285 279 273 267 258 249 246 245 246 248 250 248 246 243 239 238 236 235 235 234 235
290 337 253 101 43 356 297 287 249 161 248 277 292 320 329 51 21 84 105 128 20 44 278 275 354 24 290 284 317 349 292 274 270 268 270 274 282 276 280 302 318 327 327 318 310 314 333 11 32 34 32 27 21 18 16 15 14 12 8 2 350 336 325 315 307 300 292 286 278 266 256 251 250 250 249 249 246 244 241 237 236 234 233 233 232 233
301 296 211 134 77 289 287 295 230 183 250 314 356 343 358 32 28 52 77 78 56 354 262 246 188 89 312 287 279 273 272 253 253 282 290 292 300 289 286 299 305 313 314 313 314 318 353 22 33 35 31 24 19 16 15 14 13 12 11 7 1 353 340 329 322 314 305 299 289 276 265 258 256 254 250 246 243 241 238 234 233 232 231 231 231 232
345 4 317 275 267 277 340 324 313 234 300 11 24 1 359 355 3 17 357 35 52 297 262 241 226 120 205 269 267 264 275 263 242 252 269 288 301 296 295 303 305 304 301 315 334 336 354 8 20 34 31 21 17 14 12 10 8 8 8 6 3 1 355 346 334 321 312 307 301 291 277 265 261 258 252 248 245 242 238 236 234 232 230 230 229 229
350 299 308 317 296 136 14 346 339 351 12 21 22 28 25 356 359 5 333 357 349 261 239 226 299 227 222 254 264 274 283 278 250 229 241 273 292 295 294 298 300 293 300 324 332 328 329 312 337 35 34 20 15 12 8 6 4 2 2 1 359 359 358 355 348 338 326 315 310 307 294 279 268 261 255 251 249 247 243 240 238 234 230 229 228 227
338 311 328 348 319 208 72 37 341 325 350 360 19 69 56 40 10 332 298 326 299 270 271 32 76 263 283 273 247 260 281 279 265 244 248 269 281 287 286 287 295 305 326 336 326 329 324 292 317 30 32 21 13 9 6 3 0 358 356 356 353 353 355 356 355 351 341 329 320 317 311 297 280 267 260 256 253 251 248 244 242 239 235 232 230 229
358 320 312 343 318 3 56 91 226 241 324 314 189 126 97 123 128 270 244 267 291 291 301 344 123 209 288 287 254 270 290 289 283 270 282 285 275 286 294 295 311 327 334 335 329 330 313 302 343 22 24 18 10 5 4 1 358 355 351 350 346 345 348 350 351 350 348 341 331 323 319 313 297 279 267 261 257 254 251 248 245 243 240 237 235 233
22 275 259 275 274 127 345 249 149 102 333 289 167 87 28 178 164 194 215 221 264 305 299 298 214 218 251 280 287 317 324 320 332 341 338 316 303 325 322 311 324 328 326 332 332 329 323 332 360 14 13 12 8 2 360 358 356 352 348 346 341 338 338 340 342 343 342 342 338 331 324 319 311 294 277 267 262 258 254 251 248 246 243 239 237 234
26 276 279 320 328 180 177 215 118 71 295 337 46 1 273 185 141 140 276 289 38 340 281 288 282 293 326 299 301 348 350 335 342 354 349 321 313 328 319 312 328 343 350 353 352 352 353 357 4 8 6 4 2 358 355 353 351 349 346 343 340 337 335 334 335 336 336 336 337 336 332 325 319 307 290 277 269 263 259 255 251 249 246 242 238 235
146 287 296 321 296 279 187 149 324 291 158 74 300 247 254 58 95 106 297 340 23 303 274 300 285 300 339 301 311 353 350 340 346 353 347 335 342 350 349 353 2 10 10 7 7 8 8 7 5 3 2 359 357 354 351 349 347 346 344 341 338 336 335 334 332 331 331 330 331 333 334 331 324 316 303 290 278 269 262 256 253 250 247 245 241 237
132 296 297 263 243 290 336 63 343 315 300 113 243 240 58 19 322 16 357 312 326 292 287 299 290 279 238 254 319 346 340 346 348 350 354 0 9 12 13 17 19 17 14 10 10 9 5 4 0 358 356 353 352 350 346 343 342 342 340 339 336 333 332 332 331 329 328 327 325 325 329 331 329 324 314 302 290 276 265 259 256 252 248 246 243 239
58 345 292 281 268 303 349 33 340 311 324 358 354 328 11 177 201 217 216 198 256 270 280 301 302 291 223 221 334 347 352 6 4 3 12 18 19 18 17 18 16 14 12 9 5 1 358 356 353 352 349 345 344 342 339 337 336 336 335 334 333 331 329 329 329 329 328 328 324 319 321 326 331 329 322 312 300 284 272 264 259 254 251 247 243 240
2 95 266 288 322 352 344 300 232 267 302 343 2 336 309 282 237 300 272 159 155 231 253 296 296 288 256 206 20 14 18 22 18 17 22 23 19 15 14 12 8 5 3 1 358 354 350 347 345 344 341 338 337 335 334 332 331 330 330 329 329 327 326 326 327 328 327 327 324 318 315 320 325 328 325 317 307 293 281 272 264 259 255 250 245 241
351 128 249 297 336 340 282 250 203 206 201 181 227 240 236 258 351 335 294 299 104 191 213 259 282 287 314 49 44 34 30 24 22 21 21 18 13 7 5 2 359 356 353 353 351 346 342 339 338 336 333 332 331 330 329 327 325 324 324 323 323 321 321 322 324 326 325 324 322 319 317 316 318 321 322 318 310 299 289 280 271 264 258 252 248 243
10 100 277 277 270 270 278 288 39 199 161 146 193 199 178 155 114 220 271 284 299 247 202 173 278 281 6 53 47 39 35 25 21 17 11 9 2 354 349 348 349 346 343 346 346 342 336 332 329 328 327 327 326 325 324 322 321 321 319 319 319 318 320 322 323 323 321 319 318 319 319 316 314 314 315 315 311 304 296 287 278 269 260 254 250 245
358 80 8 292 280 276 286 325 42 67 89 96 264 211 175 218 170 207 230 216 256 277 276 324 279 265 58 53 37 30 25 16 14 10 4 358 350 344 340 337 339 336 336 342 341 336 329 326 326 326 327 327 325 323 321 320 320 319 319 319 318 318 320 323 323 322 319 317 316 317 317 316 314 312 310 311 310 306 302 294 284 273 263 256 252 246
322 344 32 342 333 329 329 349 350 329 3 291 268 205 139 32 335 244 256 54 246 269 271 260 260 254 53 37 22 18 10 4 4 359 353 350 344 340 333 329 328 326 329 335 333 328 325 325 326 326 326 324 321 320 320 320 320 319 318 318 318 319 320 322 322 320 318 315 314 315 314 313 312 309 307 308 308 307 306 300 289 278 267 258 252 246
272 233 95 74 331 320 320 319 313 312 325 312 293 297 17 53 304 278 304 298 245 273 276 245 260 281 6 17 11 9 0 353 353 348 343 342 340 335 330 325 319 317 322 327 326 323 322 323 323 322 322 320 320 320 320 320 318 317 317 317 317 319 320 320 320 319 317 315 314 313 312 312 309 306 304 305 306 306 306 303 294 282 271 261 253 246
88 255 207 176 198 242 257 268 284 319 313 299 298 303 313 329 292 278 294 265 263 291 279 269 298 322 0 6 359 358 353 342 341 344 339 334 333 331 328 321 312 309 316 322 325 324 324 324 322 321 320 319 319 319 318 318 317 316 315 316 317 318 318 317 318 317 316 315 314 313 312 311 308 305 304 304 305 304 302 300 296 287 277 266 255 246
75 307 255 199 218 243 249 266 287 311 291 280 287 302 314 322 325 318 282 280 293 294 282 321 346 344 354 0 352 348 346 336 330 333 330 323 320 320 318 314 307 305 315 326 328 327 327 326 324 322 320 319 318 318 318 318 318 317 317 316 317 317 316 315 315 315 314 314 313 312 312 311 309 305 304 304 304 302 298 296 294 289 280 268 256 247
111 272 255 193 244 262 262 267 278 284 270 268 288 320 324 326 333 326 303 309 323 301 299 342 347 337 345 356 347 339 335 328 318 312 308 310 310 311 312 310 305 308 323 330 329 327 327 326 324 322 320 319 319 319 320 319 318 318 318 317 317 316 315 315 314 314 313 312 310 310 311 311 308 306 304 303 302 300 296 292 289 285 278 265 256 249
136 265 265 206 274 284 279 267 266 265 266 289 341 1 343 338 347 341 327 331 330 303 328 343 336 332 344 346 333 323 313 307 306 300 302 312 315 316 317 314 316 326 332 329 326 326 324 321 319 317 317 317 318 318 317 316 315 315 314 314 314 312 312 312 312 311 311 310 309 309 309 309 307 306 304 302 300 298 295 290 286 281 273 264 256 249
54 288 305 54 320 302 295 278 266 256 260 300 15 15 359 358 2 356 346 341 333 313 330 339 335 334 340 330 316 309 298 298 309 311 313 319 322 324 326 328 331 333 328 323 322 322 320 317 315 314 314 315 315 315 314 312 312 311 311 311 310 309 309 309 308 307 307 306 307 308 308 308 307 305 303 302 300 297 294 290 285 278 271 263 255 247
11 299 334 32 346 304 306 333 323 302 289 37 35 14 1 2 359 349 332 316 333 325 327 339 343 332 325 316 307 307 309 311 314 316 318 322 325 328 332 332 330 327 322 320 320 320 318 315 314 313 314 315 315 314 313 312 311 310 310 310 310 309 309 309 308 307 306 304 305 306 307 308 307 306 305 303 300 297 293 290 284 276 268 260 252 244
88 69 329 7 336 297 308 328 322 317 336 33 41 13 356 353 350 341 325 298 303 328 337 336 327 315 313 314 314 318 322 319 315 318 320 321 325 328 328 326 323 319 316 315 318 317 314 312 311 312 313 313 313 312 312 311 310 308 310 310 309 309 308 308 308 306 304 303 304 304 305 306 304 304 305 304 303 299 294 289 284 276 267 260 253 244
81 94 269 274 273 288 307 329 327 326 336 313 107 41 357 344 344 337 327 304 272 324 342 319 313 320 322 324 324 324 325 323 321 321 319 319 323 325 324 321 318 315 315 317 319 317 314 312 312 313 313 313 313 312 312 311 309 308 309 309 308 307 307 306 305 303 302 302 303 304 305 304 302 302 303 304 304 302 298 292 285 278 268 260 251 241
28 70 254 209 200 277 313 357 340 330 337 177 149 33 360 349 347 338 330 312 273 337 339 325 324 328 327 326 326 325 325 324 321 317 313 314 319 320 320 318 316 316 318 319 318 315 312 312 312 313 313 313 312 311 310 309 308 308 309 308 306 305 305 304 302 300 300 302 304 305 304 302 301 302 302 302 303 302 299 295 289 282 272 260 247 238
151 132 231 215 211 293 336 6 324 314 65 131 23 7 3 356 349 337 326 312 285 335 339 333 331 330 328 327 326 323 321 318 312 306 303 309 318 320 318 314 313 314 313 311 310 307 307 308 308 309 310 309 309 308 307 307 308 307 307 306 304 303 302 302 300 299 302 304 304 303 303 301 300 301 301 301 301 300 298 296 292 286 278 263 249 240
151 129 5 302 196 284 316 302 293 299 331 49 12 3 357 340 328 320 312 302 325 352 344 337 330 327 325 321 318 317 317 313 307 302 304 315 321 318 313 309 309 309 307 306 304 304 305 306 307 308 308 307 306 306 306 308 309 307 305 304 303 303 303 302 300 300 302 303 302 302 303 301 299 298 298 298 297 297 296 294 291 288 281 264 248 238
175 166 135 294 283 43 317 301 312 312 308 333 345 345 343 327 320 317 304 298 7 356 340 329 321 320 319 316 317 321 321 316 311 310 317 322 319 315 310 307 306 305 304 304 304 306 308 309 310 310 308 307 307 307 309 311 312 309 306 305 305 305 305 302 300 301 302 302 303 305 304 301 298 297 297 295 294 294 293 292 289 287 282 265 247 239
120 109 98 71 303 5 354 299 300 303 305 332 330 337 345 335 325 319 302 308 354 345 328 318 317 318 318 318 320 324 323 319 315 314 320 319 315 311 308 305 305 305 304 304 307 309 309 310 310 310 309 309 309 310 312 313 313 311 307 306 307 306 304 302 300 302 303 303 304 304 302 300 298 297 297 295 293 291 290 289 288 285 280 266 250 243
63 35 51 21 290 302 302 282 278 263 288 337 335 341 347 337 329 329 320 323 339 332 321 321 320 317 317 317 319 321 320 316 311 309 312 311 307 306 305 305 307 307 306 308 311 313 312 310 311 311 310 311 310 310 312 312 312 310 307 306 307 305 303 303 302 304 305 305 306 305 301 300 299 298 297 295 293 292 291 289 287 282 276 265 252 243
26 10 5 305 307 316 304 294 301 270 287 347 347 347 344 334 331 339 324 315 324 326 323 321 315 312 314 313 313 314 307 300 298 298 301 302 303 304 305 306 306 305 305 308 313 315 314 312 312 311 310 311 310 309 310 311 310 308 307 306 305 302 303 304 305 305 306 306 306 306 303 302 300 299 299 297 295 294 293 292 287 279 271 261 247 234
5 336 332 349 325 319 313 307 304 279 348 5 350 342 344 341 335 331 315 310 319 321 317 313 309 307 308 306 305 304 299 297 296 295 296 299 301 303 304 305 305 304 307 311 314 315 315 313 312 311 310 310 310 309 309 310 308 306 306 304 301 302 305 307 307 307 307 306 305 305 304 304 303 301 300 299 297 296 297 298 294 282 269 256 239 221
345 311 334 340 317 313 319 324 320 303 347 360 347 340 350 342 317 310 310 311 315 314 311 309 306 305 307 306 304 302 299 299 300 299 300 301 301 302 302 301 302 306 311 313 314 314 313 310 310 310 310 309 309 308 309 309 308 306 304 301 301 305 307 309 308 308 307 306 304 305 306 306 305 304 303 301 300 300 300 301 301 290 270 247 227 210
28 10 330 309 349 8 328 313 322 311 321 344 341 327 321 315 310 316 317 313 312 311 308 306 304 304 305 302 301 301 300 300 302 302 303 303 301 300 300 302 306 311 312 311 312 313 312 309 308 310 309 309 309 308 310 310 309 306 302 301 304 308 310 310 310 309 307 306 305 306 307 307 307 306 305 303 304 303 300 301 304 296 269 236 212 197
38 8 299 263 322 336 279 269 285 296 309 326 325 315 314 316 319 317 309 305 307 307 305 304 303 304 303 300 300 300 299 300 302 301 301 301 301 302 306 309 312 312 310 309 310 311 310 309 310 309 308 310 310 310 311 311 310 307 304 306 308 309 310 311 311 310 308 307 307 307 307 308 307 306 306 307 307 305 303 306 310 300 263 223 203 192
241 314 310 252 308 297 269 275 295 306 317 320 316 315 317 316 315 310 303 301 302 300 299 299 298 299 300 299 299 299 299 300 300 299 300 302 304 307 311 313 312 311 310 309 309 310 311 311 311 308 307 310 311 311 311 311 310 308 307 308 309 309 310 311 310 309 308 308 308 309 308 308 306 306 309 311 310 310 313 317 314 299 255 212 200 193
282 325 348 358 331 319 310 312 314 317 320 317 314 314 312 310 311 310 306 303 303 302 302 299 298 298 298 297 297 297 298 298 298 299 303 306 311 314 315 313 311 312 311 309 309 312 313 312 310 309 308 309 311 312 311 310 310 310 310 310 310 311 312 312 310 309 308 308 308 308 308 307 306 308 311 314 315 320 326 326 319 299 249 208 195 186
328 342 341 337 331 318 304 309 316 318 318 320 325 323 317 316 318 314 309 307 307 307 305 302 301 300 300 301 302 299 298 299 301 304 307 312 316 317 314 311 311 311 311 311 313 314 313 310 310 310 309 309 311 313 312 311 312 313 313 313 313 313 313 313 312 310 309 308 308 307 308 308 308 310 314 316 320 328 332 331 325 302 259 226 204 189
313 340 337 326 323 309 300 318 328 324 319 323 328 320 314 315 316 311 307 308 310 311 310 310 309 306 305 306 306 304 305 307 307 309 313 316 317 315 312 311 311 312 313 315 315 313 312 311 311 311 310 311 312 313 313 313 314 315 315 315 315 316 315 314 313 312 309 309 309 309 310 311 310 313 316 316 321 330 335 335 331 308 279 257 231 214
331 352 341 327 327 322 319 328 332 322 314 318 320 314 310 311 312 309 310 314 316 316 316 314 313 312 310 307 307 308 310 310 310 313 315 314 312 313 314 314 314 315 315 315 313 312 312 313 313 313 312 313 315 314 313 313 314 315 316 317 317 317 316 315 315 313 310 310 311 311 312 312 311 315 317 315 320 331 337 337 337 321 287 276 261 234
343 347 338 327 318 312 313 318 322 312 302 305 308 307 306 309 310 310 312 313 313 313 314 313 313 314 313 310 310 311 309 309 312 314 313 311 312 316 317 317 316 315 313 312 311 313 314 314 313 312 313 315 317 315 311 310 313 315 316 317 317 317 317 316 315 313 311 311 312 312 312 312 312 315 317 315 321 333 339 337 337 335 307 281 276 244